Hourly Data Report for April 03, 2018

CLYDE RIVER A
NUNAVUT
Current Station Operator: NAVCAN

70°29'09.000" N
68°31'01.000" W
26.50 m
2400804
71090
YCY

Download Data

Hourly Data (April 2018)
Hourly Data Report for April 3, 2018
TIME
LST
Temp Definition
°C
Dew Point Definition
°C
Rel Hum Definition
%
Precip. Amount Definition
mm

Wind Dir Definition
10's deg

Wind Spd Definition
km/h
Visibility Definition
km
Stn Press Definition
kPa
Hmdx Definition


Wind Chill Definition


Weather Definition


00:00 -12.3 -14.3 85 0.0 31 15 16.1 102.30   -20 Snow
01:00 -12.6 -14.6 85 0.0 25 8 16.1 102.30   -18 Snow
02:00 -12.7 -14.7 85 0.0 32 22 16.1 102.25   -22 Snow
03:00 -12.8 -14.7 86 0.0 32 22 16.1 102.26   -22 Snow
04:00 -12.9 -14.8 86 0.0 32 21 11.3 102.25   -22 Snow
05:00 -12.8 -14.8 85 0.0 33 24 8.1 102.20   -22 Snow
06:00 -12.7 -14.9 84 0.0 33 17 4.8 102.20   -21 Snow
07:00 -12.4 -15.0 81 0.0 33 21 16.1 102.19   -21 Snow
08:00 -12.8 -15.1 83 0.0 34 32 11.3 102.16   -23 Snow
09:00 -12.3 -15.1 80 0.0 34 32 16.1 102.13   -23 LegendNANA
10:00 -12.5 -15.4 79 0.0 32 26 12.9 102.10   -22 Snow
11:00 -11.8 -15.0 77 0.0 30 9 16.1 102.12   -17 Snow
12:00 -12.2 -15.2 79 0.0 30 26 16.1 102.07   -22 Snow
13:00 -12.0 -14.8 80 0.0 33 46 2.4 101.95   -24 Snow,Blowing Snow
14:00 -13.0 -16.9 73 0.0 33 39 6.4 101.97   -25 Snow
15:00 -13.2 -16.9 74 0.0 33 32 16.1 102.00   -24 LegendNANA
16:00 -13.6 -17.1 76 0.0 32 35 16.1 102.00   -25 LegendNANA
17:00 -14.7 -18.5 73 0.0 32 35 16.1 102.00   -26 LegendNANA
18:00 -14.9 -18.9 72 0.0 28 15 16.1 102.00   -23 LegendNANA
19:00 -16.8 -19.8 78 0.0 29 24 16.1 101.98   -27 LegendNANA
20:00 -15.5 -19.1 74 0.0 32 30 16.1 101.97   -27 LegendNANA
21:00 -16.2 -19.2 78 0.0 32 28 16.1 101.98   -27 LegendNANA
22:00 -15.9 -19.5 74 0.0 31 34 16.1 101.97   -28 LegendNANA
23:00 -16.9 -20.7 73 0.0 31 32 16.1 101.93   -29 LegendNANA

Notes on Data Quality.

Legend

  • E = Estimated
  • M = Missing
  • NA = Not Available*
  • [empty] = Indicates an unobserved value
Date modified: